Location: Alpine Heights
(32.8181°N, 116.7809°W)
Time: 00:32:06
(UTC+00:00)

GP-B - Pass Details

Date: 14 April 2021
Orbit: 631 x 635 km, 89.8° (Epoch: 15 May)

Event Time Altitude Azimuth Distance (km) Brightness Sun altitude
Rises 12:13:06 0° 3° (N) 2,931 6.9 -13.9°
Reaches altitude 10° 12:15:20 10° 4° (N) 2,018 6.0 -13.5°
Maximum altitude 12:19:46 85° 91° (E) 638 3.1 -12.6°
Drops below altitude 10° 12:24:11 10° 182° (S) 2,003 5.5 -11.8°
Sets 12:26:23 0° 183° (S) 2,906 6.3 -11.3°
